[[{"header":{"parameterUnit":"m.s-1","parameterCategory":2,"la1":30.2991,"la2":30.254,"lo1":-89.0895,"lo2":-89.0444,"dy":0.0017,"dx":0.0017,"nx":28,"ny":28,"refTime":"2023-10-15T09:00:00:Z","depth":"0","parameterNumber":2,"parameterNumberName":"U-component_of_CURRENTS"},"data":[0,0,0,0,0,0,0,0,0,0,0,0,0,0,0,0,0,0,0,0,0,0,0,0,0,0,0,0,0,0,0,0,0,0,0,0,0,0,0,0,0,0,0,0,0,0,0,0,0,0,0,0,0,0,0,0,0,0,-0.23,-0.2301,0,-0.2343,-0.2343,-0.2343,-0.232,-0.2319,-0.2318,-0.2317,-0.233,-0.2332,-0.2333,0,0,0,0,0,0,0,0,0,0,0,0,0,-0.2234,-0.2235,-0.23,-0.2301,-0.2301,-0.2343,-0.2343,-0.2344,-0.232,-0.2319,-0.2317,-0.2316,-0.233,-0.2331,-0.2333,0,0,0,0,0,0,0,0,0,0,0,0,0,-0.2267,-0.2235,-0.23,-0.2295,-0.2295,-0.2343,-0.2343,-0.2344,-0.232,-0.2319,-0.2317,-0.2316,-0.2329,-0.2331,-0.2333,-0.2378,0,0,-0.234,-0.234,0,0,0,0,0,0,0,0,-0.2265,-0.2269,-0.2295,-0.2296,-0.2296,-0.2325,-0.2325,-0.2354,-0.2321,-0.231,-0.2317,-0.2315,-0.2328,-0.233,-0.234,-0.2379,-0.238,-0.234,-0.2341,-0.2342,-0.2342,0,0,0,0,0,0,0,-0.2263,-0.2268,-0.2316,-0.2296,-0.2297,-0.2303,-0.2306,-0.2331,-0.2326,-0.2311,-0.2309,-0.2316,-0.2327,-0.2338,-0.234,-0.238,-0.234,-0.2342,-0.2343,-0.2344,-0.2417,-0.2418,0,0,0,0,0,0,-0.226,-0.2266,-0.2315,-0.2317,-0.2278,-0.2306,-0.2309,-0.2317,-0.2326,-0.2327,-0.2318,-0.2315,-0.2336,-0.2338,-0.2341,-0.2362,-0.2342,-0.2344,-0.2345,-0.2417,-0.2417,-0.2418,0,0,0,0,0,0,-0.2259,-0.2264,-0.2313,-0.2293,-0.23,-0.2309,-0.2318,-0.2318,-0.2323,-0.2332,-0.2331,-0.2321,-0.2335,-0.2338,-0.2355,-0.2363,-0.2345,-0.2347,-0.2416,-0.2417,-0.2418,-0.2425,0,0,0,0,0,0,-0.2257,-0.2263,-0.2268,-0.2293,-0.2301,-0.2339,-0.232,-0.232,-0.2331,-0.2328,-0.2335,-0.2335,-0.2334,-0.2352,-0.2357,-0.2366,-0.2348,-0.2415,-0.2416,-0.2418,-0.2424,-0.2426,-0.2428,0,0,0,0,0,-0.2254,-0.2267,-0.2268,-0.2273,-0.2306,-0.2339,-0.2344,-0.2344,-0.2333,-0.2341,-0.2341,-0.2335,-0.2364,-0.2355,-0.2361,-0.237,-0.2414,-0.2416,-0.2417,-0.2423,-0.2426,-0.2428,0,0,0,0,0,0,-0.2238,-0.2267,-0.2268,-0.2287,-0.231,-0.2335,-0.2343,-0.2348,-0.2358,-0.2349,-0.235,-0.2351,-0.2368,-0.2374,-0.2363,-0.2395,-0.2387,-0.239,-0.2389,-0.2392,-0.2394,-0.2405,-0.235,0,0,0,0,0,-0.2239,-0.2251,-0.2283,-0.2295,-0.2308,-0.2327,-0.234,-0.2345,-0.2358,-0.236,-0.2364,-0.237,-0.2384,-0.2389,-0.2403,-0.2428,-0.2435,-0.2436,-0.2438,-0.244,-0.2454,-0.2466,-0.247,-0.2424,-0.2424,-0.2424,0,0,-0.2234,-0.2251,-0.2257,-0.2292,-0.2307,-0.2337,-0.233,-0.2352,-0.2371,-0.2363,-0.238,-0.2382,-0.2393,-0.2412,-0.242,-0.2415,-0.2456,-0.2442,-0.2443,-0.2456,-0.2468,-0.2473,-0.2477,-0.2425,-0.2425,-0.2424,0,0,-0.2237,-0.2248,-0.2263,-0.2288,-0.2319,-0.2338,-0.2346,-0.2375,-0.2379,-0.2407,-0.2398,-0.2407,-0.243,-0.2436,-0.2444,-0.2473,-0.2468,-0.2471,-0.2491,-0.2503,-0.2506,-0.251,-0.252,-0.2524,-0.247,-0.247,-0.247,0,-0.223,-0.2256,-0.2273,-0.23,-0.2321,-0.234,-0.2369,-0.2389,-0.2416,-0.2426,-0.241,-0.2443,-0.2445,-0.2474,-0.2476,-0.2478,-0.2482,-0.2477,-0.2505,-0.2509,-0.2512,-0.2521,-0.2526,-0.2471,-0.2471,-0.2471,-0.2471,0,-0.2249,-0.2273,-0.2285,-0.2324,-0.2351,-0.2378,-0.2413,-0.2433,-0.2439,-0.2455,-0.2478,-0.2482,-0.2498,-0.2498,-0.2496,-0.2523,-0.2516,-0.2505,-0.2496,-0.2517,-0.2526,-0.253,-0.2472,-0.2471,-0.2471,-0.2471,0,0,-0.2221,-0.2287,-0.2289,-0.2313,-0.2367,-0.239,-0.2431,-0.2473,-0.2496,-0.2509,-0.2537,-0.2549,-0.2542,-0.2551,-0.2545,-0.2555,-0.2574,-0.254,-0.254,-0.2546,-0.2599,-0.2543,-0.2542,-0.2562,-0.2563,-0.2564,-0.2593,0,-0.2229,-0.2278,-0.2314,-0.2361,-0.2391,-0.2431,-0.2469,-0.2506,-0.253,-0.2561,-0.2566,-0.2587,-0.2565,-0.2568,-0.2575,-0.2581,-0.2588,-0.2568,-0.2582,-0.2582,-0.2526,-0.2547,-0.2474,-0.2488,-0.2597,-0.2598,-0.2599,0,-0.2232,-0.2266,-0.2314,-0.2382,-0.2399,-0.2431,-0.2489,-0.2528,-0.258,-0.2598,-0.2619,-0.2626,-0.2648,-0.2621,-0.264,-0.2625,-0.2616,-0.2615,-0.2615,-0.2567,-0.2535,-0.2487,-0.2493,-0.2449,-0.2606,-0.2605,-0.2605,0,-0.2191,-0.2264,-0.2299,-0.2322,-0.2404,-0.2428,-0.2468,-0.2527,-0.2564,-0.2618,-0.2647,-0.2669,-0.2686,-0.2681,-0.2669,-0.2658,-0.2687,-0.2669,-0.2613,-0.2609,-0.2554,-0.2543,-0.2516,-0.2684,-0.2684,-0.2684,-0.2684,0,-0.2182,-0.2208,-0.228,-0.2297,-0.2342,-0.2401,-0.2447,-0.2499,-0.2566,-0.2613,-0.2653,-0.2689,-0.2702,-0.2715,-0.2693,-0.2666,-0.2702,-0.2627,-0.2615,-0.2553,-0.2542,-0.2505,-0.2488,-0.2685,-0.2685,-0.2685,-0.2685,0,-0.2129,-0.218,-0.2222,-0.2299,-0.2323,-0.2348,-0.2434,-0.2467,-0.2543,-0.2609,-0.2629,-0.2711,-0.2725,-0.2725,-0.273,-0.2695,-0.2624,-0.2653,-0.2577,-0.2555,-0.2446,-0.2431,-0.2411,-0.2345,-0.2602,-0.2601,-0.26,0,-0.2107,-0.212,-0.2201,-0.2218,-0.225,-0.2299,-0.2335,-0.2434,-0.2476,-0.2614,-0.264,-0.27,-0.2731,-0.2722,-0.2674,-0.2632,-0.2576,-0.2527,-0.2489,-0.2436,-0.2412,-0.241,-0.2356,-0.2423,-0.2421,-0.2419,-0.2417,0,-0.2053,-0.2078,-0.2111,-0.2151,-0.2188,-0.2233,-0.2293,-0.2334,-0.2456,-0.2527,-0.2628,-0.2677,-0.2705,-0.2646,-0.2587,-0.2537,-0.2449,-0.2484,-0.2453,-0.2291,-0.2266,-0.2197,-0.2412,-0.24,-0.2402,-0.2403,-0.2404,-0.2405,-0.1997,-0.2004,-0.204,-0.2067,-0.2111,-0.2142,-0.2138,-0.223,-0.23,-0.2397,-0.2531,-0.2587,-0.2589,-0.2508,-0.2455,-0.2316,-0.2341,-0.2235,-0.2231,-0.2242,-0.2147,-0.232,-0.2274,-0.2274,-0.2275,-0.2276,-0.2277,0,-0.1915,-0.1928,-0.195,-0.1978,-0.1972,-0.2028,-0.2082,-0.2063,-0.2107,-0.2268,-0.2349,-0.2426,-0.2355,-0.2327,-0.223,-0.2115,-0.2059,-0.2017,-0.2002,-0.1964,-0.2137,-0.2094,-0.1976,-0.1976,-0.1976,-0.1976,-0.1976,-0.1976,-0.1873,-0.1855,-0.1865,-0.1819,-0.1828,-0.1775,-0.1772,-0.179,-0.1862,-0.1966,-0.2075,-0.2228,-0.2232,-0.228,-0.2111,-0.1976,-0.1884,-0.1813,-0.1805,-0.193,-0.1951,-0.1971,-0.1926,-0.1775,-0.1775,-0.1599,-0.1597,-0.1596]},{"header":{"parameterUnit":"m.s-1","parameterCategory":2,"la1":30.2991,"la2":30.254,"lo1":-89.0895,"lo2":-89.0444,"dy":0.0017,"dx":0.0017,"nx":28,"ny":28,"refTime":"2023-10-15T09:00:00:Z","depth":"0","parameterNumber":3,"parameterNumberName":"V-component_of_CURRENTS"},"data":[0,0,0,0,0,0,0,0,0,0,0,0,0,0,0,0,0,0,0,0,0,0,0,0,0,0,0,0,0,0,0,0,0,0,0,0,0,0,0,0,0,0,0,0,0,0,0,0,0,0,0,0,0,0,0,0,0,0,-0.0351,-0.0351,0,-0.033,-0.033,-0.033,-0.0299,-0.0298,-0.0298,-0.0297,-0.0239,-0.0238,-0.0237,0,0,0,0,0,0,0,0,0,0,0,0,0,-0.0355,-0.0355,-0.0351,-0.0351,-0.035,-0.033,-0.033,-0.033,-0.0299,-0.0298,-0.0298,-0.0297,-0.024,-0.0239,-0.0237,0,0,0,0,0,0,0,0,0,0,0,0,0,-0.0346,-0.0355,-0.0351,-0.0333,-0.0331,-0.033,-0.033,-0.033,-0.0299,-0.0298,-0.0298,-0.0297,-0.024,-0.0239,-0.0237,-0.0243,0,0,-0.0232,-0.0231,0,0,0,0,0,0,0,0,-0.0346,-0.0345,-0.0336,-0.0334,-0.0332,-0.0317,-0.031,-0.0299,-0.0299,-0.0311,-0.0297,-0.0296,-0.0263,-0.0259,-0.0257,-0.024,-0.0237,-0.0232,-0.0231,-0.023,-0.023,0,0,0,0,0,0,0,-0.0347,-0.0346,-0.0342,-0.0336,-0.0333,-0.0323,-0.0321,-0.0308,-0.029,-0.031,-0.0308,-0.0306,-0.0261,-0.0259,-0.0255,-0.0237,-0.0232,-0.0231,-0.023,-0.0229,-0.0212,-0.0212,0,0,0,0,0,0,-0.0352,-0.0347,-0.0343,-0.0342,-0.0338,-0.0324,-0.0321,-0.0322,-0.0291,-0.0286,-0.0307,-0.0305,-0.0262,-0.0257,-0.0253,-0.0252,-0.023,-0.0229,-0.0228,-0.0211,-0.0212,-0.0213,0,0,0,0,0,0,-0.0352,-0.0352,-0.0344,-0.0344,-0.0342,-0.0325,-0.0326,-0.0322,-0.0316,-0.0289,-0.0283,-0.0304,-0.0261,-0.0255,-0.0244,-0.025,-0.0228,-0.0227,-0.0211,-0.0212,-0.0212,-0.0254,0,0,0,0,0,0,-0.0352,-0.0352,-0.0355,-0.0344,-0.0342,-0.0349,-0.0326,-0.0322,-0.0317,-0.0314,-0.0285,-0.0279,-0.026,-0.0247,-0.0243,-0.0247,-0.0225,-0.021,-0.0211,-0.0212,-0.0252,-0.0256,-0.0259,0,0,0,0,0,-0.0352,-0.0364,-0.0355,-0.0355,-0.0347,-0.035,-0.0348,-0.0332,-0.0318,-0.0322,-0.0301,-0.028,-0.025,-0.0246,-0.0241,-0.0245,-0.021,-0.0211,-0.0212,-0.025,-0.0255,-0.0259,0,0,0,0,0,0,-0.0368,-0.0361,-0.0352,-0.036,-0.0357,-0.0345,-0.0347,-0.0335,-0.0323,-0.0316,-0.0287,-0.0281,-0.0273,-0.0256,-0.0253,-0.0244,-0.0226,-0.0226,-0.0257,-0.0261,-0.0265,-0.0265,-0.0224,0,0,0,0,0,-0.0374,-0.0379,-0.037,-0.0377,-0.0375,-0.0361,-0.0359,-0.0349,-0.0336,-0.033,-0.031,-0.0289,-0.0275,-0.0266,-0.0252,-0.0248,-0.0212,-0.0247,-0.0251,-0.0254,-0.0252,-0.0211,-0.021,-0.0216,-0.0216,-0.0216,0,0,-0.0382,-0.0379,-0.0381,-0.0381,-0.0374,-0.0383,-0.0358,-0.0358,-0.0362,-0.0325,-0.0323,-0.0302,-0.0278,-0.0273,-0.0268,-0.0258,-0.0232,-0.0256,-0.0259,-0.0254,-0.0212,-0.0211,-0.021,-0.0217,-0.0217,-0.0217,0,0,-0.0408,-0.0398,-0.0413,-0.0414,-0.0408,-0.0399,-0.0401,-0.039,-0.0379,-0.0378,-0.035,-0.0332,-0.0317,-0.0296,-0.0285,-0.0301,-0.0255,-0.0299,-0.0316,-0.0277,-0.0275,-0.0274,-0.0218,-0.0211,-0.0299,-0.0299,-0.0299,0,-0.0418,-0.0435,-0.0418,-0.0434,-0.044,-0.0409,-0.0429,-0.0417,-0.0403,-0.0394,-0.0383,-0.0347,-0.0327,-0.031,-0.0316,-0.0308,-0.0273,-0.0301,-0.028,-0.0278,-0.0276,-0.0219,-0.0211,-0.0301,-0.0301,-0.0301,-0.0301,0,-0.0456,-0.047,-0.0479,-0.0488,-0.0491,-0.0502,-0.0485,-0.0477,-0.0458,-0.0442,-0.042,-0.0389,-0.0365,-0.0358,-0.0343,-0.032,-0.0295,-0.029,-0.0268,-0.0278,-0.0217,-0.0208,-0.0305,-0.0304,-0.0303,-0.0303,0,0,-0.0482,-0.0502,-0.0507,-0.0523,-0.0521,-0.0529,-0.0528,-0.0519,-0.0512,-0.0485,-0.0473,-0.0444,-0.0413,-0.0398,-0.0369,-0.0334,-0.0287,-0.031,-0.0306,-0.0251,-0.0184,-0.0142,-0.0127,-0.0279,-0.0278,-0.0277,-0.0144,0,-0.0518,-0.0565,-0.0561,-0.06,-0.0623,-0.0596,-0.06,-0.0583,-0.0556,-0.0534,-0.0481,-0.0461,-0.0432,-0.0419,-0.0379,-0.0312,-0.0267,-0.0322,-0.0184,-0.0179,-0.0139,-0.0117,-0.0121,-0.0001,-0.0135,-0.0133,-0.0132,0,-0.056,-0.0586,-0.0636,-0.0659,-0.0665,-0.0677,-0.067,-0.0668,-0.062,-0.0597,-0.0553,-0.0508,-0.0448,-0.0427,-0.0302,-0.0338,-0.0265,-0.0208,-0.0202,-0.0142,-0.0121,-0.0014,0.0021,0.0131,-0.0117,-0.0119,-0.012,0,-0.0598,-0.0639,-0.0681,-0.0692,-0.0709,-0.0716,-0.0717,-0.0687,-0.0684,-0.0631,-0.0615,-0.0533,-0.0488,-0.0392,-0.0267,-0.0285,-0.0118,-0.0128,-0.0015,-0.0011,0.0025,0.0031,0.0185,-0.0038,-0.0038,-0.0038,-0.0039,0,-0.0643,-0.0676,-0.0702,-0.0727,-0.0769,-0.0759,-0.0782,-0.0765,-0.0734,-0.073,-0.065,-0.0618,-0.0478,-0.0366,-0.0262,-0.0095,-0.0107,-0.0003,0.0028,0.0011,0.0014,0.0141,0.019,-0.0033,-0.0034,-0.0035,-0.0036,0,-0.0682,-0.0698,-0.0751,-0.0781,-0.0792,-0.0822,-0.0839,-0.0849,-0.0808,-0.0796,-0.0781,-0.0666,-0.0516,-0.0358,-0.018,-0.0083,0.0157,0.0123,0.0106,0.0132,0.0319,0.0365,0.061,0.0721,0.0264,0.0266,0.0268,0,-0.0708,-0.0738,-0.0799,-0.0836,-0.0853,-0.0889,-0.0915,-0.0894,-0.0901,-0.0828,-0.0824,-0.0672,-0.0569,-0.027,-0.0069,0.0151,0.0257,0.0283,0.0241,0.0349,0.0423,0.0489,0.057,0.028,0.0282,0.0283,0.0284,0,-0.0754,-0.0774,-0.082,-0.0897,-0.0941,-0.099,-0.1017,-0.1033,-0.0997,-0.0973,-0.0895,-0.0801,-0.0501,-0.0252,0.0051,0.018,0.0392,0.0316,0.0429,0.0459,0.0541,0.0654,0.0186,0.0295,0.0294,0.0293,0.0293,0.0292,-0.0784,-0.0831,-0.0891,-0.096,-0.1018,-0.1076,-0.1108,-0.1125,-0.1132,-0.1089,-0.0965,-0.0823,-0.0414,0.0005,0.0164,0.0492,0.0507,0.0568,0.062,0.0684,0.0776,0.0345,0.0481,0.0481,0.0481,0.0481,0.0481,0,-0.0819,-0.0871,-0.0947,-0.1032,-0.1103,-0.1115,-0.1165,-0.1181,-0.1194,-0.1135,-0.104,-0.0648,-0.0254,0.0125,0.0613,0.078,0.0849,0.0869,0.0944,0.1017,0.0627,0.0609,0.0777,0.0777,0.0777,0.0776,0.0776,0.0776,-0.0839,-0.0916,-0.0958,-0.108,-0.1138,-0.1204,-0.123,-0.1247,-0.1208,-0.1098,-0.0924,-0.0766,-0.0185,0.0655,0.1095,0.1112,0.1283,0.1254,0.1396,0.1071,0.1046,0.1022,0.1017,0.1267,0.1268,0.1775,0.1779,0.1782]}],[{"header":{"parameterUnit":"m.s-1","parameterCategory":2,"la1":30.2991,"la2":30.254,"lo1":-89.0895,"lo2":-89.0444,"dy":0.0017,"dx":0.0017,"nx":28,"ny":28,"refTime":"2023-10-15T09:00:00:Z","depth":"2","parameterNumber":2,"parameterNumberName":"U-component_of_CURRENTS"},"data":[0,0,0,0,0,0,0,0,0,0,0,0,0,0,0,0,0,0,0,0,0,0,0,0,0,0,0,0,0,0,0,0,0,0,0,0,0,0,0,0,0,0,0,0,0,0,0,0,0,0,0,0,0,0,0,0,0,0,-0.223,-0.223,0,-0.2265,-0.2265,-0.2265,-0.2244,-0.2243,-0.2242,-0.2241,-0.2255,-0.2256,-0.2257,0,0,0,0,0,0,0,0,0,0,0,0,0,-0.2169,-0.217,-0.223,-0.223,-0.2231,-0.2265,-0.2265,-0.2265,-0.2244,-0.2243,-0.2242,-0.2241,-0.2254,-0.2256,-0.2257,0,0,0,0,0,0,0,0,0,0,0,0,0,-0.2198,-0.2171,-0.223,-0.2225,-0.2225,-0.2265,-0.2265,-0.2266,-0.2244,-0.2243,-0.2241,-0.224,-0.2254,-0.2256,-0.2257,-0.2297,0,0,-0.2263,-0.2264,0,0,0,0,0,0,0,0,-0.2196,-0.22,-0.2225,-0.2225,-0.2225,-0.2249,-0.2249,-0.2275,-0.2245,-0.2236,-0.2241,-0.2239,-0.2253,-0.2255,-0.2263,-0.2297,-0.2298,-0.2263,-0.2264,-0.2265,-0.2266,0,0,0,0,0,0,0,-0.2194,-0.2199,-0.2242,-0.2226,-0.2226,-0.223,-0.2232,-0.2254,-0.225,-0.2236,-0.2235,-0.2241,-0.2252,-0.2261,-0.2263,-0.2298,-0.2263,-0.2265,-0.2266,-0.2267,-0.2336,-0.2337,0,0,0,0,0,0,-0.2193,-0.2197,-0.2241,-0.2244,-0.2209,-0.2232,-0.2234,-0.2242,-0.2251,-0.2251,-0.2242,-0.224,-0.2259,-0.2261,-0.2264,-0.2287,-0.2265,-0.2267,-0.2268,-0.2336,-0.2336,-0.2337,0,0,0,0,0,0,-0.2192,-0.2197,-0.224,-0.2222,-0.2227,-0.2234,-0.2244,-0.2244,-0.2249,-0.2256,-0.2255,-0.2246,-0.2258,-0.2261,-0.2278,-0.2288,-0.2268,-0.2269,-0.2335,-0.2336,-0.2337,-0.2348,0,0,0,0,0,0,-0.219,-0.2196,-0.2201,-0.2222,-0.2229,-0.2263,-0.2245,-0.2245,-0.2255,-0.2252,-0.2259,-0.2259,-0.2257,-0.2276,-0.228,-0.229,-0.2271,-0.2334,-0.2335,-0.2337,-0.2347,-0.235,-0.2352,0,0,0,0,0,-0.2187,-0.22,-0.2201,-0.2206,-0.2235,-0.2264,-0.2268,-0.2267,-0.2257,-0.2265,-0.2265,-0.2259,-0.2287,-0.2278,-0.2283,-0.2294,-0.2333,-0.2335,-0.2336,-0.2346,-0.2349,-0.2352,0,0,0,0,0,0,-0.2174,-0.22,-0.2201,-0.2219,-0.224,-0.226,-0.2267,-0.2272,-0.228,-0.2274,-0.2274,-0.2275,-0.2292,-0.2297,-0.2286,-0.2318,-0.2308,-0.2311,-0.2313,-0.2317,-0.2319,-0.2329,-0.2272,0,0,0,0,0,-0.2176,-0.2187,-0.2216,-0.2227,-0.2239,-0.2255,-0.2266,-0.227,-0.2282,-0.2284,-0.2288,-0.2294,-0.2307,-0.2313,-0.2325,-0.2349,-0.2355,-0.2358,-0.236,-0.2362,-0.2374,-0.2386,-0.2391,-0.2343,-0.2343,-0.2343,0,0,-0.2173,-0.2188,-0.2193,-0.2225,-0.2237,-0.2264,-0.2257,-0.2277,-0.2296,-0.2286,-0.2305,-0.2307,-0.2316,-0.2335,-0.2344,-0.2337,-0.238,-0.2365,-0.2366,-0.2377,-0.2389,-0.2393,-0.2397,-0.2344,-0.2344,-0.2344,0,0,-0.2176,-0.2187,-0.2201,-0.2224,-0.2251,-0.2268,-0.2275,-0.23,-0.2305,-0.2331,-0.2324,-0.2333,-0.2355,-0.2361,-0.2368,-0.2398,-0.2393,-0.2397,-0.2417,-0.2428,-0.2432,-0.2436,-0.2449,-0.2454,-0.2396,-0.2396,-0.2396,0,-0.2171,-0.2195,-0.221,-0.2235,-0.2254,-0.2271,-0.2297,-0.2315,-0.234,-0.235,-0.2337,-0.2368,-0.2371,-0.2398,-0.2402,-0.2404,-0.2408,-0.2402,-0.2431,-0.2435,-0.2438,-0.2451,-0.2456,-0.2397,-0.2397,-0.2397,-0.2397,0,-0.2189,-0.2212,-0.2223,-0.2258,-0.2282,-0.2307,-0.2339,-0.2358,-0.2365,-0.238,-0.2404,-0.2408,-0.2424,-0.2425,-0.2423,-0.245,-0.2444,-0.2432,-0.2421,-0.2444,-0.2455,-0.246,-0.2398,-0.2398,-0.2398,-0.2398,0,0,-0.2166,-0.2225,-0.2227,-0.2249,-0.2298,-0.2318,-0.2357,-0.2396,-0.2418,-0.2433,-0.2459,-0.2474,-0.2468,-0.2477,-0.2471,-0.2482,-0.2504,-0.2467,-0.2467,-0.2477,-0.2531,-0.2461,-0.246,-0.2492,-0.2493,-0.2493,-0.2529,0,-0.2174,-0.2218,-0.2251,-0.2294,-0.232,-0.2357,-0.2393,-0.2427,-0.2451,-0.2481,-0.2488,-0.2509,-0.249,-0.2494,-0.2502,-0.2508,-0.2518,-0.2496,-0.2512,-0.2513,-0.2444,-0.2464,-0.2273,-0.2283,-0.2533,-0.2534,-0.2535,0,-0.2177,-0.2208,-0.2251,-0.2313,-0.2328,-0.2357,-0.2412,-0.2449,-0.2498,-0.2516,-0.2537,-0.2545,-0.2569,-0.2544,-0.2567,-0.2551,-0.2546,-0.2546,-0.2547,-0.2483,-0.2452,-0.2302,-0.2282,-0.2543,-0.2542,-0.2542,-0.2541,0,-0.214,-0.2206,-0.2238,-0.2259,-0.2333,-0.2355,-0.2393,-0.2449,-0.2482,-0.2535,-0.2562,-0.2586,-0.2603,-0.2603,-0.2595,-0.2585,-0.2616,-0.2599,-0.2536,-0.2532,-0.2375,-0.2354,-0.2618,-0.2618,-0.2618,-0.2618,-0.2618,0,-0.2132,-0.2155,-0.222,-0.2236,-0.2277,-0.2332,-0.2375,-0.2422,-0.2485,-0.2525,-0.2568,-0.2599,-0.2618,-0.2634,-0.2618,-0.2589,-0.2631,-0.2549,-0.2536,-0.2373,-0.2352,-0.2582,-0.2577,-0.2619,-0.2619,-0.2619,-0.2618,0,-0.2083,-0.213,-0.2168,-0.2238,-0.226,-0.2283,-0.2361,-0.239,-0.2462,-0.2519,-0.2538,-0.2615,-0.2631,-0.2639,-0.2649,-0.2613,-0.2595,-0.2574,-0.2382,-0.2346,-0.2502,-0.2498,-0.2515,-0.2513,-0.2511,-0.2509,-0.2508,0,-0.2063,-0.2074,-0.2147,-0.2162,-0.2192,-0.2236,-0.2268,-0.2359,-0.2394,-0.2519,-0.2538,-0.2596,-0.2613,-0.2609,-0.255,-0.251,-0.2555,-0.231,-0.2252,-0.2505,-0.2492,-0.2491,-0.2489,-0.2053,-0.2048,-0.2044,-0.2041,0,-0.2011,-0.2035,-0.2064,-0.2098,-0.213,-0.2169,-0.222,-0.2253,-0.2363,-0.242,-0.2499,-0.2534,-0.2545,-0.2417,-0.2362,-0.2305,-0.2298,-0.2227,-0.2538,-0.2107,-0.2072,-0.2058,-0.2071,-0.2005,-0.2009,-0.2011,-0.2013,-0.2015,-0.1959,-0.1963,-0.1995,-0.2016,-0.2055,-0.2075,-0.2065,-0.2137,-0.2187,-0.2235,-0.2363,-0.2338,-0.2332,-0.2149,-0.2054,-0.1962,-0.212,-0.2007,-0.2018,-0.2035,-0.1973,-0.1936,-0.1833,-0.1836,-0.1838,-0.184,-0.1841,0,-0.1879,-0.1889,-0.1906,-0.1927,-0.1914,-0.1968,-0.2006,-0.1965,-0.1977,-0.205,-0.2088,-0.1907,-0.183,-0.1807,-0.1635,-0.1617,-0.1589,-0.1523,-0.1481,-0.1518,-0.1551,-0.1464,-0.119,-0.1188,-0.1185,-0.1184,0,0,-0.1838,-0.1816,-0.1821,-0.1767,-0.1774,-0.171,-0.1698,-0.1674,-0.1679,-0.164,-0.1616,-0.1744,-0.1782,-0.1486,-0.1422,-0.1282,-0.1381,-0.1213,-0.174,-0.1729,-0.1759,-0.1837,-0.1746,0,0,0,0,0]},{"header":{"parameterUnit":"m.s-1","parameterCategory":2,"la1":30.2991,"la2":30.254,"lo1":-89.0895,"lo2":-89.0444,"dy":0.0017,"dx":0.0017,"nx":28,"ny":28,"refTime":"2023-10-15T09:00:00:Z","depth":"2","parameterNumber":3,"parameterNumberName":"V-component_of_CURRENTS"},"data":[0,0,0,0,0,0,0,0,0,0,0,0,0,0,0,0,0,0,0,0,0,0,0,0,0,0,0,0,0,0,0,0,0,0,0,0,0,0,0,0,0,0,0,0,0,0,0,0,0,0,0,0,0,0,0,0,0,0,-0.023,-0.0229,0,-0.0209,-0.0209,-0.0209,-0.0182,-0.0181,-0.0181,-0.0181,-0.0126,-0.0125,-0.0124,0,0,0,0,0,0,0,0,0,0,0,0,0,-0.0232,-0.0232,-0.023,-0.0229,-0.0229,-0.021,-0.0209,-0.0209,-0.0182,-0.0181,-0.0181,-0.018,-0.0126,-0.0125,-0.0124,0,0,0,0,0,0,0,0,0,0,0,0,0,-0.0223,-0.0232,-0.023,-0.0214,-0.0212,-0.021,-0.0209,-0.0209,-0.0182,-0.0181,-0.0181,-0.018,-0.0127,-0.0125,-0.0124,-0.0125,0,0,-0.0119,-0.0118,0,0,0,0,0,0,0,0,-0.0223,-0.0223,-0.0216,-0.0215,-0.0213,-0.0198,-0.019,-0.0179,-0.0182,-0.0193,-0.0181,-0.018,-0.0148,-0.0144,-0.0142,-0.0123,-0.012,-0.0119,-0.0118,-0.0117,-0.0116,0,0,0,0,0,0,0,-0.0224,-0.0223,-0.0221,-0.0216,-0.0214,-0.0204,-0.0202,-0.0188,-0.0173,-0.0192,-0.019,-0.0189,-0.0147,-0.0143,-0.014,-0.012,-0.0119,-0.0117,-0.0116,-0.0115,-0.0097,-0.0097,0,0,0,0,0,0,-0.0229,-0.0224,-0.0222,-0.022,-0.0218,-0.0204,-0.0202,-0.0203,-0.0174,-0.0169,-0.0189,-0.0188,-0.0146,-0.0142,-0.0138,-0.0139,-0.0117,-0.0115,-0.0114,-0.0096,-0.0097,-0.0098,0,0,0,0,0,0,-0.023,-0.0229,-0.0222,-0.0222,-0.0221,-0.0205,-0.0206,-0.0203,-0.0199,-0.0172,-0.0167,-0.0189,-0.0146,-0.014,-0.013,-0.0137,-0.0115,-0.0113,-0.0096,-0.0097,-0.0097,-0.0141,0,0,0,0,0,0,-0.023,-0.023,-0.0233,-0.0223,-0.0221,-0.0228,-0.0207,-0.0203,-0.0199,-0.0197,-0.017,-0.0164,-0.0145,-0.0133,-0.0129,-0.0134,-0.0112,-0.0095,-0.0096,-0.0097,-0.0139,-0.0143,-0.0147,0,0,0,0,0,-0.023,-0.0242,-0.0234,-0.0234,-0.0226,-0.0229,-0.0227,-0.0213,-0.02,-0.0205,-0.0185,-0.0165,-0.0136,-0.0132,-0.0127,-0.0132,-0.0095,-0.0096,-0.0097,-0.0137,-0.0142,-0.0147,0,0,0,0,0,0,-0.0247,-0.024,-0.0231,-0.024,-0.0236,-0.0224,-0.0228,-0.0217,-0.0206,-0.02,-0.0172,-0.0166,-0.0159,-0.0142,-0.0139,-0.013,-0.0111,-0.0112,-0.0144,-0.0148,-0.0152,-0.0154,-0.011,0,0,0,0,0,-0.0253,-0.0258,-0.0249,-0.0257,-0.0255,-0.0241,-0.024,-0.023,-0.0219,-0.0213,-0.0194,-0.0174,-0.0161,-0.0152,-0.0137,-0.0133,-0.0101,-0.0133,-0.0137,-0.014,-0.0139,-0.0104,-0.0105,-0.0101,-0.0101,-0.0101,0,0,-0.0262,-0.0258,-0.0261,-0.026,-0.0254,-0.0263,-0.0239,-0.024,-0.0244,-0.0209,-0.0208,-0.0188,-0.0163,-0.0159,-0.0154,-0.0144,-0.0123,-0.0142,-0.0145,-0.0141,-0.0105,-0.0105,-0.0106,-0.0102,-0.0102,-0.0102,0,0,-0.0289,-0.028,-0.0294,-0.0294,-0.029,-0.028,-0.0283,-0.0272,-0.0262,-0.0262,-0.0235,-0.0219,-0.0203,-0.0184,-0.0172,-0.0189,-0.0146,-0.0186,-0.0204,-0.0172,-0.0171,-0.0171,-0.0123,-0.0117,-0.0186,-0.0187,-0.0187,0,-0.0301,-0.0317,-0.03,-0.0315,-0.0321,-0.0291,-0.0311,-0.0299,-0.0286,-0.0279,-0.0268,-0.0234,-0.0214,-0.02,-0.0206,-0.0197,-0.0166,-0.0189,-0.0176,-0.0175,-0.0173,-0.0124,-0.0118,-0.0189,-0.0189,-0.0188,-0.0188,0,-0.0339,-0.0352,-0.0362,-0.037,-0.0373,-0.0385,-0.0367,-0.0361,-0.0343,-0.0328,-0.031,-0.0279,-0.0257,-0.0249,-0.0233,-0.0215,-0.0191,-0.0186,-0.0164,-0.0176,-0.0124,-0.0116,-0.0192,-0.0191,-0.019,-0.019,0,0,-0.0369,-0.0386,-0.0391,-0.0407,-0.0403,-0.0413,-0.0411,-0.0404,-0.0401,-0.0374,-0.0367,-0.0337,-0.0309,-0.0294,-0.0265,-0.0234,-0.0196,-0.0209,-0.0206,-0.016,-0.0109,-0.008,-0.0068,-0.0189,-0.0188,-0.0187,-0.0073,0,-0.0406,-0.0452,-0.0446,-0.0486,-0.0508,-0.0481,-0.0486,-0.047,-0.0446,-0.0428,-0.0377,-0.0362,-0.0329,-0.0318,-0.0281,-0.022,-0.018,-0.0227,-0.0104,-0.01,-0.0072,-0.006,-0.0098,0.0002,-0.0065,-0.0064,-0.0063,0,-0.045,-0.0475,-0.0524,-0.0547,-0.0553,-0.0566,-0.0562,-0.0561,-0.0517,-0.0497,-0.0457,-0.0414,-0.036,-0.0336,-0.0223,-0.0254,-0.0186,-0.0132,-0.0127,-0.0079,-0.0058,0.0002,0.0018,-0.005,-0.0051,-0.0052,-0.0053,0,-0.0492,-0.0531,-0.0573,-0.0583,-0.0599,-0.0608,-0.061,-0.0583,-0.0582,-0.0535,-0.0525,-0.0448,-0.041,-0.0319,-0.02,-0.0213,-0.0066,-0.0071,0.0025,0.0029,0.0032,0.0035,0.0009,0.0009,0.0009,0.0009,0.0008,0,-0.054,-0.0574,-0.0596,-0.0621,-0.0665,-0.0654,-0.0681,-0.0665,-0.0639,-0.0641,-0.0563,-0.0539,-0.0405,-0.0303,-0.0202,-0.0053,-0.0062,0.0033,0.006,0.0017,0.0016,-0.0006,-0.0009,0.0013,0.0012,0.0011,0.0011,0,-0.0584,-0.0597,-0.065,-0.0679,-0.069,-0.0722,-0.0741,-0.0754,-0.0717,-0.0713,-0.07,-0.0596,-0.0461,-0.0309,-0.0144,-0.0054,0.008,0.0134,0.0087,0.0106,0.0154,0.0147,0.0247,0.0249,0.0251,0.0252,0.0253,0,-0.0612,-0.0642,-0.0701,-0.0738,-0.0754,-0.0793,-0.082,-0.0801,-0.0811,-0.075,-0.0751,-0.0616,-0.0528,-0.0256,-0.0068,0.0136,0.0139,0.0226,0.0188,0.0162,0.0178,0.0168,0.0159,0.0182,0.0183,0.0183,0.0184,0,-0.0664,-0.0682,-0.0727,-0.0804,-0.0849,-0.0898,-0.0928,-0.0945,-0.0914,-0.0898,-0.0837,-0.0757,-0.0489,-0.0275,0.0006,0.0121,0.0189,0.0241,0.0234,0.0122,0.0108,0.0122,0.0114,0.0187,0.0187,0.0187,0.0186,0.0186,-0.07,-0.0747,-0.0804,-0.0874,-0.0932,-0.0989,-0.1022,-0.1039,-0.1051,-0.101,-0.0915,-0.0782,-0.0541,-0.0169,0.005,0.0258,0.0234,0.0281,0.0277,0.0273,0.0239,0.0228,0.0324,0.0325,0.0325,0.0325,0.0326,0,-0.0743,-0.0794,-0.0868,-0.0952,-0.1022,-0.1033,-0.1083,-0.1092,-0.1106,-0.1046,-0.0972,-0.0718,-0.0465,-0.0195,0.0115,0.0301,0.0288,0.0351,0.0285,0.0279,0.0275,0.0238,0.0326,0.0327,0.0328,0.0329,0,0,-0.0768,-0.0845,-0.0884,-0.1006,-0.1063,-0.1127,-0.1151,-0.115,-0.1104,-0.1052,-0.0956,-0.0806,-0.0481,-0.0254,-0.0007,0.0168,0.0183,0.0196,0.017,0.0057,0.0051,0.0204,0.0139,0,0,0,0,0]}],[{"header":{"parameterUnit":"m.s-1","parameterCategory":2,"la1":30.2991,"la2":30.254,"lo1":-89.0895,"lo2":-89.0444,"dy":0.0017,"dx":0.0017,"nx":28,"ny":28,"refTime":"2023-10-15T09:00:00:Z","depth":"4","parameterNumber":2,"parameterNumberName":"U-component_of_CURRENTS"},"data":[0,0,0,0,0,0,0,0,0,0,0,0,0,0,0,0,0,0,0,0,0,0,0,0,0,0,0,0,0,0,0,0,0,0,0,0,0,0,0,0,0,0,0,0,0,0,0,0,0,0,0,0,0,0,0,0,0,0,-0.1669,-0.167,0,-0.1719,-0.1719,-0.172,-0.1749,-0.1749,-0.1749,-0.175,-0.1817,-0.1818,-0.182,0,0,0,0,0,0,0,0,0,0,0,0,0,-0.1595,-0.1596,-0.1669,-0.167,-0.1671,-0.1719,-0.1719,-0.172,-0.1749,-0.1749,-0.1749,-0.175,-0.1816,-0.1818,-0.182,0,0,0,0,0,0,0,0,0,0,0,0,0,-0.1633,-0.1596,-0.1669,-0.1692,-0.1694,-0.1719,-0.1719,-0.172,-0.1749,-0.1749,-0.175,-0.175,-0.1816,-0.1818,-0.182,-0.1828,0,0,-0.1827,-0.1828,0,0,0,0,0,0,0,0,-0.1631,-0.1635,-0.1688,-0.169,-0.1693,-0.1729,-0.1718,-0.1758,-0.1749,-0.1727,-0.175,-0.175,-0.1789,-0.1794,-0.1801,-0.1831,-0.1834,-0.1828,-0.1829,-0.183,-0.1831,0,0,0,0,0,0,0,-0.1628,-0.1633,-0.1688,-0.1688,-0.1692,-0.1698,-0.1704,-0.1725,-0.1755,-0.1729,-0.1731,-0.1739,-0.1791,-0.1798,-0.1803,-0.1835,-0.1828,-0.183,-0.1831,-0.1832,-0.1933,-0.1934,0,0,0,0,0,0,-0.1624,-0.1631,-0.1686,-0.1689,-0.1663,-0.1699,-0.1705,-0.1716,-0.1755,-0.1761,-0.1738,-0.174,-0.1794,-0.18,-0.1805,-0.187,-0.183,-0.1832,-0.1834,-0.1931,-0.1933,-0.1934,0,0,0,0,0,0,-0.1622,-0.1629,-0.1684,-0.1662,-0.1669,-0.17,-0.1712,-0.1717,-0.175,-0.1762,-0.1768,-0.1768,-0.1795,-0.1802,-0.1846,-0.1871,-0.1833,-0.1835,-0.193,-0.1932,-0.1934,-0.1966,0,0,0,0,0,0,-0.162,-0.1628,-0.1648,-0.1662,-0.1671,-0.1714,-0.1712,-0.1718,-0.1752,-0.1756,-0.1789,-0.1794,-0.1795,-0.1843,-0.1848,-0.1874,-0.1837,-0.1928,-0.1931,-0.1933,-0.1964,-0.1969,-0.1974,0,0,0,0,0,-0.1617,-0.1638,-0.1649,-0.1656,-0.1693,-0.1715,-0.1721,-0.1742,-0.1754,-0.1772,-0.1797,-0.1795,-0.1861,-0.1846,-0.1852,-0.1879,-0.1927,-0.193,-0.1933,-0.1961,-0.1968,-0.1974,0,0,0,0,0,0,-0.1617,-0.1643,-0.1656,-0.1685,-0.1707,-0.1721,-0.1744,-0.1758,-0.1792,-0.1803,-0.1813,-0.182,-0.1867,-0.1871,-0.1853,-0.1915,-0.1894,-0.1898,-0.1913,-0.1919,-0.1924,-0.1925,-0.1839,0,0,0,0,0,-0.1626,-0.165,-0.1672,-0.1698,-0.1711,-0.1734,-0.1752,-0.1767,-0.1791,-0.1807,-0.1831,-0.1856,-0.1879,-0.1899,-0.1919,-0.1956,-0.1942,-0.1977,-0.1982,-0.1986,-0.1992,-0.1995,-0.2,-0.1944,-0.1944,-0.1944,0,0,-0.1634,-0.1652,-0.1668,-0.17,-0.172,-0.1745,-0.1746,-0.178,-0.1808,-0.1809,-0.1863,-0.1879,-0.1894,-0.1932,-0.1954,-0.1942,-0.1993,-0.199,-0.1993,-0.1997,-0.1998,-0.2004,-0.2009,-0.1946,-0.1945,-0.1945,0,0,-0.165,-0.1678,-0.1701,-0.1722,-0.1757,-0.1771,-0.1787,-0.1819,-0.1843,-0.1889,-0.1896,-0.1928,-0.1971,-0.1982,-0.1992,-0.204,-0.202,-0.205,-0.2078,-0.2081,-0.2085,-0.2089,-0.2064,-0.2065,-0.2052,-0.2052,-0.2052,0,-0.1662,-0.169,-0.1711,-0.1735,-0.1759,-0.1786,-0.1814,-0.1842,-0.1886,-0.1908,-0.1915,-0.1977,-0.1992,-0.2029,-0.2046,-0.2051,-0.204,-0.2051,-0.2086,-0.2089,-0.2093,-0.2066,-0.2067,-0.2054,-0.2054,-0.2054,-0.2054,0,-0.1682,-0.1718,-0.1733,-0.1774,-0.1801,-0.1832,-0.1866,-0.1904,-0.1938,-0.196,-0.2015,-0.2034,-0.2066,-0.2078,-0.2079,-0.2114,-0.2093,-0.209,-0.2066,-0.21,-0.207,-0.207,-0.2057,-0.2056,-0.2056,-0.2055,0,0,-0.1672,-0.1736,-0.1744,-0.1771,-0.1826,-0.1846,-0.1901,-0.1948,-0.1983,-0.2028,-0.2068,-0.2112,-0.2121,-0.2133,-0.2139,-0.2147,-0.2156,-0.2134,-0.2133,-0.2101,-0.2143,-0.201,-0.1997,-0.2159,-0.216,-0.2161,-0.2107,0,-0.1684,-0.1733,-0.1766,-0.182,-0.1847,-0.1893,-0.1938,-0.1986,-0.2027,-0.2072,-0.2101,-0.2141,-0.2142,-0.2159,-0.217,-0.2166,-0.2162,-0.2169,-0.2123,-0.2121,-0.1992,-0.1995,-0.2163,-0.2107,-0.2107,-0.2107,-0.2107,0,-0.1684,-0.1719,-0.1774,-0.1843,-0.186,-0.1901,-0.1971,-0.2015,-0.2079,-0.2112,-0.2153,-0.2172,-0.2204,-0.2195,-0.2197,-0.2202,-0.2178,-0.2165,-0.2163,-0.2028,-0.1988,-0.2072,-0.2107,-0.2107,-0.2107,-0.2107,-0.2107,0,-0.1646,-0.1721,-0.1768,-0.1791,-0.1873,-0.1913,-0.196,-0.2029,-0.2066,-0.2135,-0.2161,-0.2201,-0.2217,-0.2212,-0.219,-0.2198,-0.217,-0.2173,-0.2024,-0.2013,-0.2136,-0.2133,-0.2163,-0.2163,-0.2163,-0.2163,-0.2163,0,-0.1625,-0.1665,-0.1759,-0.178,-0.1839,-0.19,-0.1961,-0.2016,-0.2083,-0.2107,-0.2176,-0.218,-0.2225,-0.2213,-0.2192,-0.2094,-0.2166,-0.202,-0.1991,-0.2149,-0.2148,-0.2135,-0.2132,-0.2161,-0.2161,-0.2162,-0.2162,0,-0.1568,-0.1634,-0.1691,-0.1788,-0.1822,-0.1861,-0.1956,-0.1984,-0.2065,-0.2096,-0.2117,-0.217,-0.2148,-0.2162,-0.214,-0.2071,-0.2011,-0.1957,-0.2107,-0.2089,-0.1851,-0.1851,-0.1782,-0.1777,-0.1773,-0.1769,-0.1766,0,-0.1538,-0.1563,-0.168,-0.1711,-0.176,-0.1829,-0.1867,-0.1964,-0.1981,-0.2057,-0.2047,-0.2071,-0.2085,-0.1936,-0.1975,-0.191,-0.1892,-0.1841,-0.1865,-0.1833,-0.1813,-0.182,-0.1826,-0.1759,-0.1758,-0.1757,-0.1756,0,-0.1474,-0.1534,-0.1578,-0.1643,-0.1696,-0.1742,-0.1798,-0.1799,-0.1883,-0.1977,-0.1917,-0.1888,-0.1857,-0.1831,-0.1791,-0.175,-0.1868,-0.1796,-0.1805,-0.1826,-0.1804,-0.179,-0.1801,-0.1741,-0.1743,-0.1744,-0.1745,0,-0.1427,-0.1444,-0.1509,-0.1547,-0.1615,-0.1616,-0.1666,-0.1664,-0.1695,-0.1777,-0.1745,-0.1771,-0.1827,-0.1744,-0.1706,-0.1658,-0.1639,-0.1583,-0.1604,-0.1621,-0.1594,-0.1544,-0.1365,0,0,0,0,0,-0.1366,-0.1366,-0.1399,-0.1433,-0.1492,-0.1522,-0.1596,-0.164,-0.1722,-0.1634,-0.1684,-0.1643,-0.1583,-0.1598,-0.1514,-0.1643,-0.1655,-0.1538,-0.1606,-0.1657,-0.1674,-0.1659,0,0,0,0,0,0,-0.1323,-0.1357,-0.1359,-0.1321,-0.1316,-0.1359,-0.1398,-0.1457,-0.1412,-0.1501,-0.1475,-0.1541,-0.151,-0.1604,-0.1479,-0.1484,-0.149,-0.1566,-0.1561,-0.1647,-0.1663,-0.1677,-0.1667,0,0,0,0,0]},{"header":{"parameterUnit":"m.s-1","parameterCategory":2,"la1":30.2991,"la2":30.254,"lo1":-89.0895,"lo2":-89.0444,"dy":0.0017,"dx":0.0017,"nx":28,"ny":28,"refTime":"2023-10-15T09:00:00:Z","depth":"4","parameterNumber":3,"parameterNumberName":"V-component_of_CURRENTS"},"data":[0,0,0,0,0,0,0,0,0,0,0,0,0,0,0,0,0,0,0,0,0,0,0,0,0,0,0,0,0,0,0,0,0,0,0,0,0,0,0,0,0,0,0,0,0,0,0,0,0,0,0,0,0,0,0,0,0,0,-0.0098,-0.0098,0,-0.0087,-0.0087,-0.0087,-0.0072,-0.0072,-0.0072,-0.0071,-0.0033,-0.0033,-0.0032,0,0,0,0,0,0,0,0,0,0,0,0,0,-0.0092,-0.0092,-0.0098,-0.0098,-0.0098,-0.0087,-0.0087,-0.0087,-0.0072,-0.0072,-0.0071,-0.0071,-0.0034,-0.0033,-0.0032,0,0,0,0,0,0,0,0,0,0,0,0,0,-0.0088,-0.0092,-0.0098,-0.009,-0.0089,-0.0087,-0.0087,-0.0087,-0.0072,-0.0072,-0.0071,-0.0071,-0.0034,-0.0033,-0.0032,-0.0029,0,0,-0.0028,-0.0027,0,0,0,0,0,0,0,0,-0.0088,-0.0088,-0.0091,-0.009,-0.0089,-0.0081,-0.0071,-0.0066,-0.0072,-0.0077,-0.0071,-0.0071,-0.0048,-0.0045,-0.0043,-0.0027,-0.0025,-0.0027,-0.0027,-0.0026,-0.0026,0,0,0,0,0,0,0,-0.0089,-0.0089,-0.0093,-0.0091,-0.009,-0.0082,-0.0081,-0.007,-0.0063,-0.0077,-0.0076,-0.0076,-0.0047,-0.0044,-0.0042,-0.0025,-0.0028,-0.0026,-0.0026,-0.0025,-0.0012,-0.0012,0,0,0,0,0,0,-0.0093,-0.0089,-0.0093,-0.0092,-0.0089,-0.0083,-0.0082,-0.0083,-0.0064,-0.0061,-0.0077,-0.0076,-0.0047,-0.0043,-0.004,-0.0047,-0.0026,-0.0025,-0.0024,-0.0011,-0.0012,-0.0012,0,0,0,0,0,0,-0.0093,-0.0094,-0.0093,-0.0091,-0.0091,-0.0083,-0.0085,-0.0083,-0.0084,-0.0064,-0.006,-0.0079,-0.0046,-0.0042,-0.0038,-0.0045,-0.0024,-0.0023,-0.0011,-0.0011,-0.0012,-0.0053,0,0,0,0,0,0,-0.0093,-0.0094,-0.0098,-0.0091,-0.0091,-0.01,-0.0085,-0.0083,-0.0085,-0.0083,-0.0065,-0.0061,-0.0046,-0.004,-0.0036,-0.0043,-0.0022,-0.001,-0.0011,-0.0012,-0.0051,-0.0055,-0.0058,0,0,0,0,0,-0.0093,-0.0104,-0.0099,-0.0099,-0.0097,-0.0101,-0.01,-0.0093,-0.0085,-0.0091,-0.0078,-0.0061,-0.0042,-0.0039,-0.0035,-0.0041,-0.001,-0.0011,-0.0012,-0.0049,-0.0054,-0.0058,0,0,0,0,0,0,-0.0107,-0.0103,-0.0097,-0.0107,-0.0106,-0.0099,-0.0104,-0.0097,-0.0091,-0.0088,-0.0068,-0.0063,-0.0062,-0.0047,-0.0044,-0.004,-0.0023,-0.0023,-0.0053,-0.0057,-0.006,-0.0066,-0.0021,0,0,0,0,0,-0.0111,-0.0117,-0.0112,-0.0121,-0.0121,-0.0112,-0.0113,-0.0107,-0.0101,-0.0098,-0.0086,-0.0072,-0.0062,-0.0056,-0.0046,-0.0044,-0.0029,-0.0045,-0.0048,-0.0051,-0.0053,-0.0036,-0.0038,-0.0015,-0.0015,-0.0015,0,0,-0.012,-0.0118,-0.0122,-0.0124,-0.0121,-0.0131,-0.0112,-0.0117,-0.0123,-0.0095,-0.01,-0.0085,-0.0065,-0.0064,-0.0062,-0.0052,-0.0052,-0.0052,-0.0055,-0.0056,-0.0037,-0.0039,-0.0041,-0.0016,-0.0016,-0.0015,0,0,-0.0144,-0.0138,-0.0152,-0.0153,-0.0152,-0.0147,-0.015,-0.0145,-0.0141,-0.0144,-0.0124,-0.0114,-0.0102,-0.0089,-0.008,-0.0096,-0.0073,-0.0092,-0.0113,-0.0096,-0.0098,-0.0099,-0.0094,-0.0095,-0.0093,-0.0093,-0.0093,0,-0.0155,-0.0171,-0.0157,-0.0171,-0.0179,-0.0157,-0.0177,-0.0169,-0.0163,-0.0162,-0.0152,-0.0132,-0.0114,-0.0109,-0.0114,-0.0104,-0.0094,-0.01,-0.0101,-0.0102,-0.0102,-0.0097,-0.0097,-0.0095,-0.0095,-0.0094,-0.0094,0,-0.0187,-0.0201,-0.021,-0.0219,-0.0225,-0.0238,-0.0227,-0.0227,-0.0217,-0.0208,-0.0202,-0.0176,-0.0164,-0.0155,-0.0139,-0.0135,-0.0127,-0.0109,-0.0091,-0.0107,-0.01,-0.0099,-0.0098,-0.0097,-0.0096,-0.0096,0,0,-0.0215,-0.023,-0.0236,-0.0252,-0.0253,-0.0264,-0.027,-0.0273,-0.0279,-0.0259,-0.0266,-0.024,-0.0219,-0.0207,-0.0181,-0.0162,-0.0158,-0.014,-0.0138,-0.0137,-0.013,-0.0122,-0.012,-0.0139,-0.0139,-0.0139,-0.0127,0,-0.0248,-0.0288,-0.0284,-0.0324,-0.0345,-0.0329,-0.0341,-0.0336,-0.0323,-0.032,-0.0281,-0.0277,-0.024,-0.0235,-0.021,-0.0168,-0.0156,-0.0164,-0.0112,-0.0111,-0.0104,-0.0119,-0.0139,-0.0127,-0.0126,-0.0126,-0.0126,0,-0.0284,-0.0307,-0.0354,-0.0383,-0.0391,-0.0409,-0.0423,-0.0428,-0.0406,-0.0395,-0.037,-0.0338,-0.0305,-0.0274,-0.0211,-0.0217,-0.0182,-0.0148,-0.0146,-0.0123,-0.0102,-0.0103,-0.0124,-0.0124,-0.0124,-0.0125,-0.0125,0,-0.032,-0.0359,-0.04,-0.0411,-0.0435,-0.0453,-0.0462,-0.0454,-0.0463,-0.0439,-0.0442,-0.039,-0.0372,-0.0311,-0.0234,-0.0225,-0.0166,-0.0145,-0.0109,-0.0109,-0.01,-0.0099,-0.0113,-0.0113,-0.0113,-0.0113,-0.0113,0,-0.0358,-0.0394,-0.0423,-0.0447,-0.05,-0.0496,-0.0538,-0.0533,-0.0528,-0.0544,-0.0484,-0.0482,-0.0379,-0.0328,-0.0256,-0.018,-0.0184,-0.0118,-0.0104,-0.0119,-0.012,-0.01,-0.0099,-0.0113,-0.0113,-0.0113,-0.0113,0,-0.0391,-0.0408,-0.0463,-0.0502,-0.052,-0.0557,-0.0596,-0.062,-0.0604,-0.062,-0.0616,-0.0553,-0.0477,-0.0377,-0.0278,-0.0217,-0.014,-0.0117,-0.0154,-0.0141,-0.0091,-0.0092,-0.0077,-0.0077,-0.0077,-0.0076,-0.0076,0,-0.0412,-0.0441,-0.051,-0.0551,-0.0573,-0.0625,-0.0662,-0.0663,-0.0681,-0.0665,-0.0675,-0.0607,-0.0553,-0.0411,-0.03,-0.0165,-0.0142,-0.0112,-0.0087,-0.01,-0.0087,-0.0089,-0.009,-0.0076,-0.0075,-0.0075,-0.0075,0,-0.0452,-0.0477,-0.0522,-0.0605,-0.066,-0.0717,-0.076,-0.0776,-0.077,-0.0762,-0.0722,-0.0636,-0.055,-0.0417,-0.0311,-0.0214,-0.0131,-0.0108,-0.0108,-0.0084,-0.0097,-0.0085,-0.0087,-0.0074,-0.0074,-0.0074,-0.0074,0,-0.0484,-0.0527,-0.0588,-0.0658,-0.0731,-0.0785,-0.0803,-0.0816,-0.0824,-0.0786,-0.0778,-0.0668,-0.0602,-0.0444,-0.035,-0.0244,-0.0212,-0.0181,-0.0176,-0.0176,-0.0196,-0.0227,-0.0238,0,0,0,0,0,-0.0513,-0.0564,-0.0636,-0.0714,-0.0783,-0.0819,-0.0861,-0.0862,-0.0853,-0.0831,-0.0797,-0.0712,-0.0549,-0.0479,-0.0373,-0.0342,-0.0198,-0.0215,-0.0161,-0.0068,-0.0069,-0.0074,0,0,0,0,0,0,-0.0538,-0.0609,-0.0643,-0.0741,-0.0796,-0.0867,-0.0891,-0.0882,-0.0858,-0.0831,-0.0743,-0.0692,-0.0532,-0.0609,-0.0373,-0.0341,-0.0294,-0.0136,-0.0134,-0.0067,-0.0068,-0.0069,-0.0074,0,0,0,0,0]}]]